Home   Weather   Portimão   Past weeks

Flag for Portugal Past Weather in Portimão, Portugal — Yesterday and Last 2 Weeks

68 °F


Feels Like: 68 °F
Forecast: 66 / 76 °F
Wind: 8 mph from Southeast

Location: Faro / Aeroporto

Current Time: Oct 25, 2016 at 2:29:21 AM

Latest Report: Oct 25, 2016 at 2:00 AM

Visibility: 10 mi

Pressure: 29.80 "Hg

Humidity: 88%

Dew Point: 64 °F

Location of PortimãoLocation

Past Weather in Portimão — Graph


Portimão Temperature Yesterday

Maximum temperature yesterday: 68 °F (at 9:00 PM)
Minimum temperature yesterday: 59 °F (at 6:30 AM)
Average temperature yesterday: 64 °F

High & Low Weather Summary for the Past Weeks

High81 °F (Oct 18, 3:00 PM)100% (Oct 12, 4:00 AM)30.21 "Hg (Oct 12, 4:00 AM)
Low52 °F (Oct 15, 8:00 AM)43% (Oct 14, 12:30 PM)29.59 "Hg (Oct 13, 4:00 AM)
Average66 °F80%29.90 "Hg
* Reported Oct 10 1:00 AM — Oct 25 1:00 AM, Portimão, Weather by CustomWeather, © 2016

Note: Actual official high and low records may vary slightly from our data, if they occured in-between our weather recording intervals... More about our weather records


Portimão Weather History for the Previous 24 Hours

Scroll right to see more
Time TempWeatherWind HumidityBarometerVisibility
1:00 AM
Tue, Oct 25
68 °FClear.14 mph94%29.80 "Hg10 mi
12:30 AM66 °FPassing clouds.9 mph94%29.80 "HgN/A
12:00 AM66 °FThunderstorms. Passing clouds.9 mph88%29.80 "HgN/A
11:30 PM
Mon, Oct 24
66 °FThunderstorms. Passing clouds.12 mph83%29.80 "HgN/A
11:00 PM64 °FThunderstorms. Passing clouds.17 mph94%29.80 "Hg4 mi
10:30 PM66 °FThunderstorms. Partly cloudy.23 mph94%29.77 "HgN/A
10:00 PM66 °FThunderstorms. Partly cloudy.5 mph94%29.77 "Hg1 mi
9:30 PM68 °FThunderstorms. Passing clouds.15 mph88%29.74 "HgN/A
9:00 PM68 °FThunderstorms. Passing clouds.16 mph83%29.74 "HgN/A
8:30 PM66 °FPartly cloudy.9 mph88%29.71 "HgN/A
8:00 PM63 °FThunderstorms. Partly cloudy.8 mph88%29.71 "HgN/A
7:30 PM66 °FThunderstorms. Partly cloudy.17 mph94%29.71 "Hg5 mi
7:00 PM66 °FThunderstorms. Passing clouds.17 mph94%29.71 "HgN/A
6:30 PM66 °FScattered clouds.13 mph94%29.71 "HgN/A
6:00 PM66 °FLight rain. Scattered clouds.14 mph94%29.71 "HgN/A
5:30 PM66 °FLight rain. Scattered clouds.12 mph94%29.68 "HgN/A
5:00 PM66 °FLight rain. Scattered clouds.7 mph94%29.68 "HgN/A
4:30 PM64 °FLight rain. Broken clouds.7 mph94%29.71 "HgN/A
4:00 PM64 °FSprinkles. Partly sunny.7 mph88%29.71 "Hg5 mi
3:30 PM63 °FLight rain. Broken clouds.7 mph88%29.71 "HgN/A
3:00 PM63 °FLight rain. Scattered clouds.7 mph88%29.71 "HgN/A
2:30 PM61 °FRain showers. Scattered clouds.6 mph94%29.74 "Hg2 mi
2:00 PM59 °FThunderstorms. Broken clouds.14 mph94%29.71 "Hg4 mi
1:30 PM63 °FThunderstorms. Scattered clouds.9 mph88%29.77 "Hg2 mi
1:00 PM64 °FThunderstorms. Passing clouds.14 mph94%29.74 "Hg4 mi
12:30 PM66 °FRain. Passing clouds.15 mph83%29.74 "Hg3 mi
12:00 PM66 °FPassing clouds.15 mph83%29.74 "HgN/A
11:30 AM66 °FPassing clouds.13 mph78%29.74 "HgN/A
11:00 AM66 °FPassing clouds.16 mph78%29.74 "HgN/A
10:30 AM66 °FBroken clouds.17 mph88%29.74 "HgN/A
10:00 AM66 °FBroken clouds.14 mph83%29.74 "HgN/A
9:30 AM66 °FScattered clouds.10 mph83%29.74 "HgN/A
9:00 AM64 °FScattered clouds.9 mph88%29.71 "HgN/A
8:30 AM64 °FPassing clouds.7 mph83%29.71 "HgN/A
8:00 AM61 °FPartly sunny.5 mph94%29.71 "HgN/A
7:30 AM59 °FPassing clouds.5 mph88%29.71 "HgN/A
7:00 AM59 °FPassing clouds.6 mph88%29.71 "HgN/A
6:30 AM59 °FPassing clouds.7 mph88%29.71 "HgN/A
6:00 AM61 °FPassing clouds.7 mph83%29.71 "HgN/A
5:30 AM61 °FPassing clouds.6 mph83%29.68 "HgN/A
5:00 AM61 °FPassing clouds.9 mph83%29.71 "HgN/A
4:30 AM63 °FLight rain. Passing clouds.10 mph83%29.68 "HgN/A
4:00 AM63 °FLight rain. Passing clouds.12 mph88%29.68 "HgN/A
3:30 AM63 °FLight rain. Passing clouds.14 mph88%29.71 "HgN/A
3:00 AM63 °FLight rain. Passing clouds.15 mph88%29.74 "HgN/A
2:30 AM63 °FLight rain. Passing clouds.17 mph94%29.74 "HgN/A
2:00 AM63 °FLight rain. Passing clouds.14 mph94%29.71 "HgN/A
Weather by CustomWeather, © 2016

See weather overviewHow to use our weather pages